This is the latest recevied weather packets stored in our database for station/object PA3CPS. If no packets are shown the sender has not sent any weather packets the latest 1 day(s).
| Time | Temp. | Humidity | Pressure | Rain* | Wind** | Luminosity | Snow |
|---|---|---|---|---|---|---|---|
| 1778004663 | 11.11° C | 85% | 1009.1 hPa | 0 mm | 3.13 m/s, 343° | 18 W/m² | - |
| 1778004363 | 11.11° C | 85% | 1009.2 hPa | 0 mm | 3.13 m/s, 342° | 23 W/m² | - |
| 1778004066 | 11.11° C | 84% | 1009.1 hPa | 0 mm | 3.13 m/s, 1° | 25 W/m² | - |
| 1778003762 | 11.11° C | 84% | 1009.1 hPa | 0 mm | 3.58 m/s, 36° | 26 W/m² | - |
| 1778003463 | 11.11° C | 84% | 1009.3 hPa | 0 mm | 2.24 m/s, 348° | 23 W/m² | - |
| 1778003162 | 11.11° C | 84% | 1009.2 hPa | 0 mm | 3.58 m/s, 6° | 21 W/m² | - |
| 1778002863 | 11.11° C | 84% | 1009.3 hPa | 0 mm | 3.13 m/s, 14° | 25 W/m² | - |
| 1778002562 | 11.67° C | 84% | 1009.3 hPa | 0 mm | 3.58 m/s, 312° | 25 W/m² | - |
| 1778002262 | 11.67° C | 84% | 1009.1 hPa | 0 mm | 3.13 m/s, 309° | 26 W/m² | - |
| 1778001962 | 11.67° C | 83% | 1009.2 hPa | 0 mm | 3.58 m/s, 15° | 35 W/m² | - |
| 1778001662 | 11.67° C | 83% | 1009.2 hPa | 0 mm | 2.68 m/s, 346° | 44 W/m² | - |
| 1778001362 | 11.67° C | 83% | 1009.1 hPa | 0 mm | 4.02 m/s, 345° | 46 W/m² | - |
| 1778001061 | 11.67° C | 83% | 1009.3 hPa | 0 mm | 4.02 m/s, 309° | 62 W/m² | - |
| 1778000763 | 11.67° C | 83% | 1009.3 hPa | 0 mm | 2.24 m/s, 14° | 74 W/m² | - |
| 1778000462 | 11.67° C | 83% | 1009.3 hPa | 0 mm | 3.58 m/s, 343° | 90 W/m² | - |
| 1778000162 | 11.67° C | 83% | 1009.3 hPa | 0 mm | 1.79 m/s, 295° | 90 W/m² | - |
| 1777999862 | 11.67° C | 83% | 1009.4 hPa | 0 mm | 2.68 m/s, 318° | 90 W/m² | - |
| 1777999562 | 11.67° C | 83% | 1009.5 hPa | 0 mm | 2.68 m/s, 344° | 104 W/m² | - |
| 1777999263 | 11.67° C | 83% | 1009.6 hPa | 0 mm | 3.13 m/s, 17° | 118 W/m² | - |
| 1777998962 | 11.67° C | 83% | 1009.5 hPa | 0 mm | 1.79 m/s, 349° | 97 W/m² | - |
| 1777998663 | 11.67° C | 83% | 1009.5 hPa | 0 mm | 2.24 m/s, 7° | 84 W/m² | - |
| 1777998363 | 11.67° C | 83% | 1009.5 hPa | 0 mm | 2.68 m/s, 336° | 98 W/m² | - |
| 1777998062 | 11.67° C | 83% | 1009.5 hPa | 0 mm | 3.13 m/s, 328° | 93 W/m² | - |
| 1777997762 | 11.67° C | 83% | 1009.4 hPa | 0 mm | 2.68 m/s, 330° | 104 W/m² | - |
| 1777997462 | 11.67° C | 83% | 1009.5 hPa | 0 mm | 3.58 m/s, 349° | 113 W/m² | - |
* Rain latest hour (hover to see other rain measurements)
** Current wind speed in m/s (hover to see current wind gust speed)